Location: Brunembert
(50.7122°N, 1.8935°E)
Time: 09:00:23
(UTC+00:00)

Meteor 2-2 Rocket - Pass Details

Date: 22 April 2021
Orbit: 852 x 929 km, 81.3° (Epoch: 16 May)

Event Time Altitude Azimuth Distance (km) Brightness Sun altitude
Exits shadow 21:15:44 31° 152° (SSE) 1,495 4.9 -18.3°
Maximum altitude 21:18:10 51° 95° (E) 1,094 4.5 -18.6°
Drops below altitude 10° 21:23:40 10° 21° (NNE) 2,512 7.1 -19.1°
Sets 21:26:08 0° 16° (NNE) 3,446 7.9 -19.4°
